ABS-2A (MONGOLSAT-1)

Last updated on Mon Oct 14 2024 00:02:40 GMT+0000 (Coordinated Universal Time)

1 41588U 16038A 24287.06388108 -.00000085 00000+0 00000+0 0 9993 2 41588 0.0176 211.7091 0001532 298.4294 329.6889 1.00268618 30574
UTC large
Height (km)
Speed (km/s)
/
Latitude / Longitude
Inclination (degrees)
Orbital Period (minutes)
Azimuth
Elevation
Range (km)
Doppler Factor

Next 0 passes for location: London (51.5072 / 0.1276)

Sorry there are no passes over London.